GW7044 Weather Reports


time (UTC)temp
F
wind
direction
speed
knots
gust
knots
rain 1hr
in
rain 24hr
in
rain mn
in
humidity
%
barometer
mb
20260504202611 67 144 3.5 12.2 0.00 0.00 0.00 39 1005.5
20260504202102 67 160 2.6 7.0 0.00 0.00 0.00 38 1005.4
20260504201550 67 129 2.6 11.3 0.00 0.00 0.00 38 1005.4
20260504201040 67 161 5.2 10.4 0.00 0.00 0.00 37 1005.4
20260504200534 67 140 4.3 9.6 0.00 0.00 0.00 38 1005.4
20260504200022 67 127 3.5 12.2 0.00 0.00 0.00 38 1005.5
20260504195654 67 169 7.0 13.0 0.00 0.00 0.00 37 1005.6
20260504195101 68 179 5.2 13.0 0.00 0.00 0.00 37 1005.5
20260504194552 67 171 4.3 9.6 0.00 0.00 0.00 37 1005.5
20260504194046 67 171 3.5 11.3 0.00 0.00 0.00 37 1005.5
20260504193534 68 148 6.1 11.3 0.00 0.00 0.00 36 1005.5
20260504193031 68 182 4.3 13.0 0.00 0.00 0.00 35 1005.5
20260504192522 68 175 3.5 11.3 0.00 0.00 0.00 37 1005.4
20260504192118 68 145 3.5 8.7 0.00 0.00 0.00 35 1005.4
20260504191608 68 166 4.3 13.9 0.00 0.00 0.00 35 1005.5
20260504191054 68 115 4.3 9.6 0.00 0.00 0.00 34 1005.5
20260504190541 68 129 3.5 7.8 0.00 0.00 0.00 34 1005.5
20260504190038 67 192 2.6 12.2 0.00 0.00 0.00 35 1005.5
20260504185528 68 118 4.3 11.3 0.00 0.00 0.00 34 1005.5
20260504185019 68 164 4.3 8.7 0.00 0.00 0.00 33 1005.7
20260504184614 68 205 2.6 8.7 0.00 0.00 0.00 34 1005.7
20260504184102 68 124 4.3 8.7 0.00 0.00 0.00 34 1005.7
20260504183549 68 194 2.6 8.7 0.00 0.00 0.00 35 1005.8
20260504183038 67 177 6.1 11.3 0.00 0.00 0.00 33 1005.7
20260504182529 67 177 5.2 9.6 0.00 0.00 0.00 33 1005.9
20260504182023 67 174 3.5 10.4 0.00 0.00 0.00 34 1005.9
20260504181518 67 157 5.2 13.0 0.00 0.00 0.00 34 1006.0
20260504181111 68 186 7.0 12.2 0.00 0.00 0.00 33 1006.1
20260504180552 67 191 2.6 8.7 0.00 0.00 0.00 34 1006.1
20260504180047 67 134 6.1 12.2 0.00 0.00 0.00 34 1006.3
20260504175536 67 154 4.3 7.8 0.00 0.00 0.00 34 1006.2
20260504175022 66 203 6.1 13.0 0.00 0.00 0.00 34 1006.3
20260504174518 66 172 4.3 13.0 0.00 0.00 0.00 34 1006.4
20260504174102 66 185 5.2 9.6 0.00 0.00 0.00 33 1006.5
20260504173558 67 168 4.3 13.0 0.00 0.00 0.00 34 1006.5
20260504173044 67 196 5.2 9.6 0.00 0.00 0.00 34 1006.5
20260504172534 66 162 7.0 11.3 0.00 0.00 0.00 34 1006.4
20260504172019 66 157 3.5 11.3 0.00 0.00 0.00 34 1006.5
20260504171614 66 164 5.2 12.2 0.00 0.00 0.00 34 1006.4
20260504171103 66 51 4.3 12.2 0.00 0.00 0.00 34 1006.4
20260504170558 66 199 4.3 11.3 0.00 0.00 0.00 35 1006.4
20260504160118 65 254 5.2 12.2 0.00 0.00 0.00 34 1007.0
20260504151054 64 212 4.3 9.6 0.00 0.00 0.00 36 1007.6
20260504150542 64 192 4.3 11.3 0.00 0.00 0.00 35 1007.6
20260504141111 62 228 3.5 10.4 0.00 0.00 0.00 37 1008.1
20260504140600 62 259 5.2 11.3 0.00 0.00 0.00 37 1008.2
20260504140129 62 261 3.5 11.3 0.00 0.00 0.00 39 1008.2
20260504130519 57 281 4.3 7.8 0.00 0.00 0.00 44 1008.6
20260504130111 57 300 3.5 7.0 0.00 0.00 0.00 45 1008.6
20260504110618 47 252 1.7 5.2 0.00 0.00 0.00 54 1008.5
20260504110104 47 267 1.7 3.5 0.00 0.00 0.00 55 1008.6
20260504100536 46 260 0.9 5.2 0.00 0.00 0.00 54 1008.4
20260504081610 41 110 2.6 4.3 0.00 0.00 0.00 68 1007.7
20260504081057 41 146 2.6 4.3 0.00 0.00 0.00 71 1007.8
20260504080551 41 319 0.9 3.5 0.00 0.00 0.00 74 1007.9
20260504070112 40 125 0.0 1.7 0.00 0.00 0.00 77 1007.8
20260504060111 37 0.0 1.7 0.00 0.00 0.00 67 1007.8
20260504050612 38 130 0.9 1.7 0.00 0.00 0.00 66 1007.8
20260504045545 39 0.0 1.7 0.00 0.00 0.00 64 1007.8
20260504045040 39 0.0 1.7 0.00 0.00 0.00 63 1007.9
20260504044555 39 90 0.9 1.7 0.00 0.00 0.00 63 1007.8
20260504044027 40 47 0.9 1.7 0.00 0.00 0.00 59 1007.9
20260504043518 40 99 1.7 1.7 0.00 0.00 0.00 59 1007.9
20260504043150 40 91 0.9 1.7 0.00 0.00 0.00 60 1007.9
20260504042603 40 104 0.9 1.7 0.00 0.00 0.00 56 1007.9
20260504042056 41 119 0.9 1.7 0.00 0.00 0.00 59 1008.0
20260504041611 41 0.0 1.7 0.00 0.00 0.00 56 1007.9
20260504041038 42 81 0.0 1.7 0.00 0.00 0.00 54 1007.7
20260504040528 42 116 0.9 1.7 0.00 0.00 0.00 50 1007.7
20260504040026 42 117 0.9 2.6 0.00 0.00 0.00 50 1007.7
20260504035519 42 126 1.7 2.6 0.00 0.00 0.00 51 1007.5
20260504035111 42 110 0.9 1.7 0.00 0.00 0.00 50 1007.7
20260504034559 42 129 2.6 3.5 0.00 0.00 0.00 52 1007.6
20260504034046 42 127 1.7 3.5 0.00 0.00 0.00 57 1007.6
20260504033631 42 133 0.9 1.7 0.00 0.00 0.00 53 1007.7
20260504033021 43 140 1.7 1.7 0.00 0.00 0.00 52 1007.6
20260504032613 43 132 1.7 1.7 0.00 0.00 0.00 48 1007.6
20260504032124 43 132 1.7 2.6 0.00 0.00 0.00 48 1007.6
20260504031550 43 119 1.7 1.7 0.00 0.00 0.00 48 1007.6
20260504031033 43 116 1.7 2.6 0.00 0.00 0.00 48 1007.6
20260504030529 44 124 1.7 2.6 0.00 0.00 0.00 48 1007.5
20260504030020 43 123 1.7 2.6 0.00 0.00 0.00 48 1007.5
20260504025612 43 108 1.7 2.6 0.00 0.00 0.00 49 1007.5
20260504025055 43 109 1.7 2.6 0.00 0.00 0.00 49 1007.4
20260504024613 44 129 2.6 2.6 0.00 0.00 0.00 49 1007.5
20260504024040 44 127 1.7 2.6 0.00 0.00 0.00 48 1007.5
20260504023534 44 126 1.7 2.6 0.00 0.00 0.00 48 1007.5
20260504023102 44 121 1.7 2.6 0.00 0.00 0.00 48 1007.4
20260504022614 44 123 1.7 2.6 0.00 0.00 0.00 48 1007.4
20260504021559 44 126 1.7 3.5 0.00 0.00 0.00 47 1007.3
20260504021046 44 123 1.7 2.6 0.00 0.00 0.00 46 1007.2
20260504020537 45 115 1.7 2.6 0.00 0.00 0.00 46 1007.2
20260504020031 45 120 1.7 1.7 0.00 0.00 0.00 45 1007.2
20260504015518 45 118 0.9 2.6 0.00 0.00 0.00 45 1007.2
20260504015110 45 115 0.9 1.7 0.00 0.00 0.00 45 1007.2
20260504014559 45 114 0.9 2.6 0.00 0.00 0.00 45 1007.1
20260504014057 45 125 1.7 2.6 0.00 0.00 0.00 45 1007.2
20260504013545 46 120 1.7 2.6 0.00 0.00 0.00 44 1007.1
20260504013056 45 127 1.7 2.6 0.00 0.00 0.00 45 1007.0
20260504012522 46 129 1.7 3.5 0.00 0.00 0.00 44 1007.0
20260504012037 45 124 1.7 2.6 0.00 0.00 0.00 44 1006.8
20260504011607 45 126 1.7 2.6 0.00 0.00 0.00 44 1006.9
20260504011059 45 112 1.7 1.7 0.00 0.00 0.00 44 1006.8
20260504010557 46 126 1.7 2.6 0.00 0.00 0.00 45 1006.8
20260504010048 46 132 1.7 2.6 0.00 0.00 0.00 45 1006.6
20260504005539 46 125 1.7 2.6 0.00 0.00 0.00 45 1006.4
20260504005031 45 121 1.7 2.6 0.00 0.00 0.00 45 1006.4
20260504004521 45 114 1.7 2.6 0.00 0.00 0.00 46 1006.2
20260504004116 45 114 1.7 1.7 0.00 0.00 0.00 48 1006.1
20260504003607 45 88 0.9 1.7 0.00 0.00 0.00 47 1006.2
20260504003055 45 96 0.9 1.7 0.00 0.00 0.00 47 1006.0
20260504002543 45 90 0.9 1.7 0.00 0.00 0.00 45 1006.0
20260504002031 45 93 0.9 1.7 0.00 0.00 0.00 45 1006.0
20260504001526 46 95 0.9 1.7 0.00 0.00 0.00 46 1005.9
20260504001023 46 92 0.9 1.7 0.00 0.00 0.00 46 1005.9
20260504000516 46 90 0.9 1.7 0.00 0.00 0.00 45 1005.9
20260504000111 46 91 0.9 1.7 0.00 0.00 0.00 45 1005.8
20260503235601 47 89 0.9 1.7 0.00 0.00 0.00 46 1005.8
20260503235050 48 89 0.9 1.7 0.00 0.00 0.00 44 1005.7
20260503234546 48 90 0.9 1.7 0.00 0.00 0.00 44 1005.7
20260503234039 49 112 0.9 1.7 0.00 0.00 0.00 45 1005.7
20260503233546 50 99 0.9 1.7 0.00 0.00 0.00 44 1005.6
20260503233111 51 49 0.9 1.7 0.00 0.00 0.00 42 1005.7
20260503232620 51 309 0.9 1.7 0.00 0.00 0.00 39 1005.7
20260503232055 52 309 1.7 2.6 0.00 0.00 0.00 37 1005.6
20260503231546 52 303 1.7 2.6 0.00 0.00 0.00 37 1005.5
20260503231041 51 300 2.6 4.3 0.00 0.00 0.00 38 1005.6
20260503230527 51 291 2.6 6.1 0.00 0.00 0.00 38 1005.4
20260503230020 52 297 2.6 5.2 0.00 0.00 0.00 37 1005.5
20260503225618 52 299 3.5 7.8 0.00 0.00 0.00 38 1005.4
20260503225105 52 299 3.5 7.8 0.00 0.00 0.00 37 1005.4
20260503224556 52 289 4.3 7.8 0.00 0.00 0.00 37 1005.4
20260503224047 52 292 4.3 7.8 0.00 0.00 0.00 37 1005.3
20260503223537 52 308 2.6 9.6 0.00 0.00 0.00 38 1005.2
20260503223053 52 288 3.5 11.3 0.00 0.00 0.00 37 1005.3
20260503222517 52 320 2.6 5.2 0.00 0.00 0.00 40 1005.1
20260503222113 52 43 0.9 3.5 0.00 0.00 0.00 39 1005.1
20260503221559 52 338 2.6 13.0 0.00 0.00 0.00 38 1005.1
20260503221055 52 294 3.5 13.0 0.00 0.00 0.00 39 1005.1
20260503220545 52 294 4.3 10.4 0.00 0.00 0.00 38 1005.3
20260503220036 52 299 3.5 7.8 0.00 0.00 0.00 39 1005.1
20260503215556 52 292 4.3 9.6 0.00 0.00 0.00 39 1005.2
20260503215046 53 304 5.2 12.2 0.00 0.00 0.00 37 1005.0
20260503214600 53 298 4.3 8.7 0.00 0.00 0.00 38 1005.1
20260503214111 52 265 5.2 9.6 0.00 0.00 0.00 38 1004.8
20260503213617 52 281 6.1 11.3 0.00 0.00 0.00 38 1004.9
20260503213051 52 290 7.8 13.0 0.00 0.00 0.00 37 1004.8
20260503212549 52 296 7.0 9.6 0.00 0.00 0.00 37 1004.7
20260503212042 53 284 7.0 11.3 0.00 0.00 0.00 35 1004.6
20260503211535 54 287 6.1 11.3 0.00 0.00 0.00 36 1004.7
20260503211029 54 293 7.0 14.8 0.00 0.00 0.00 36 1004.5
20260503210527 54 299 6.1 13.0 0.00 0.00 0.00 36 1004.5
20260503210113 53 297 6.1 13.9 0.00 0.00 0.00 37 1004.5
20260503205607 53 294 7.8 13.0 0.00 0.00 0.00 37 1004.3
20260503205055 52 305 3.5 12.2 0.00 0.00 0.00 38 1004.3
20260503204542 52 300 5.2 8.7 0.00 0.00 0.00 38 1004.3
20260503204053 52 284 6.1 13.0 0.00 0.00 0.00 37 1004.3
20260503203527 52 293 6.1 8.7 0.00 0.00 0.00 39 1004.4
20260503203119 52 320 4.3 9.6 0.00 0.00 0.00 40 1004.3